Regional Weather Roundup
Issued by NWS New Orleans/Baton Rouge, LA

Home | Current Version | Previous Version | Text Only | Print | Product List | Glossary Off
Versions: 1 2 3 4 5 6 7 8 9 10 11 12 13 14 15 16 17 18 19 20 21 22 23 24 25 26 27 28 29 30 31 32 33 34 35 36 37 38 39 40 41 42 43 44 45 46 47 48 49 50

701
ASUS44 KLIX 280410
RWRLIX
NEW ORLEANS REGIONAL WEATHER ROUNDUP
NATIONAL WEATHER SERVICE NEW ORLEANS LA
1100 PM CDT WED AUG 27 2014

NOTE: "FAIR" INDICATES FEW OR NO CLOUDS BELOW 12,000 FEET WITH NO
      SIGNIFICANT WEATHER AND/OR OBSTRUCTIONS TO VISIBILITY.
      SKY/WX - SKY CONDITION AND SIGNIFICANT WEATHER.
      TMP - AIR TEMPERATURE.     DP    - DEWPOINT TEMPERATURE.
      RH  - RELATIVE HUMIDITY.   PRES  - PRESSURE.
      HI  - HEAT INDEX.          WCI   - WIND CHILL INDEX.

*  THESE STATIONS ARE NOT NWS OR FAA STATIONS AND ARE NOT UNDER
   NWS QUALITY CONTROL.

LAZ038-040-048-061>063-065>067-069-280500-
SOUTHEAST LOUISIANA

CITY           SKY/WX    TMP DP  RH WIND       PRES   REMARKS
N.O. AUDUBON     N/A     84  77  81 MISG        N/A
N.O. INTL ARPT MOCLDY    82  74  76 SE5       29.99S
N.O. LAKEFRONT MOCLDY    82  76  81 SE5       30.00S
N.O. DOWNTOWN*   N/A     82  72  69 CALM      30.00S
SLIDELL        MOCLDY    77  74  90 CALM      30.00S
BATON ROUGE    PTCLDY    78  74  87 NE3       29.99S
BOOTHVILLE     PTCLDY    82  76  81 SE5       29.99S
BELLE CHASSE   CLOUDY    78  74  87 CALM      29.99R
BOGALUSA*        N/A     78  74  88 CALM      30.02S
GALLIANO*      NOT AVBL
NEW ROADS*       N/A     76  75  96 N3        30.00R
GONZALES*        N/A     78  78 100 CALM      29.99R
HAMMOND*       PTCLDY    79  73  83 CALM      30.02S
HOUMA*         MOCLDY    76  72  86 CALM      29.99S
PORT FOURCHON* CLEAR     84  75  74 SE10      30.00S

$$

MSZ070-080>082-280500-
SOUTHERN MISSISSIPPI

CITY           SKY/WX    TMP DP  RH WIND       PRES   REMARKS
MCCOMB         PTCLDY    78  72  81 CALM      30.02S
GULFPORT       MOCLDY    78  74  87 CALM      30.00S
BILOXI         PTCLDY    83  72  69 CALM      30.00S
PASCAGOULA     PTCLDY    74  73  97 CALM      30.00S

$$

COASTAL OBSERVATIONS
LAKE AND NEARSHORE STATIONS

STATION/POSITION TIME  TEMP    WIND        PRES    WAVE
                       AIR SEA DIR/SP/G            HT/PER
                 (UTC) (F)     (DEG/KT/KT) (MB)    (FT/S)
PASCAGOULA       0400   84     190/  4/  5 1015.4
WAVELAND YACHT   0400   84     180/  3/  5 1015.2
GRAND ISLE       0400   83 84  140/  7/ 12 1016.1
SOUTHWEST PASS   0400   84 89  130/  8/ 13 1015.8
NEW CANAL        0400   82 84  140/  1/  2 1016.1
SHELL BEACH      0400   83 81  120/  5/  6 1015.7

OFFSHORE STATIONS

STATION/POSITION TIME  TEMP    WIND        PRES    WAVE
                       AIR SEA DIR/SP/G            HT/PER
                 (UTC) (F)     (DEG/KT/KT) (MB)    (FT/S)
64 S DAUPHIN ISL 0259   85 85  120/  8/ 10 1015.7

$$




USA.gov is the U.S. government's official web portal to all federal, state and local government web resources and services.